Tracking 21612 objects as of 19-Oct-2020
HD Live streaming from Space Station
objects crossing your sky now

LEMUR 2 LYNSEY-SYMO

Track LEMUR 2 LYNSEY-SYMO now!
10-day predictions
LEMUR 2 LYNSEY-SYMO is classified as:


NORAD ID: 42779
Int'l Code: 2017-036Q
Perigee: 491.0 km
Apogee: 504.6 km
Inclination: 97.3 °
Period: 94.4 minutes
Semi major axis: 6868 km
RCS: Unknown
Launch date: June 23, 2017
Source: United States (US)
Launch site: SRIHARIKOTA (SRI)
aabbcc
Your satellite tracking list
Your tracking list is empty




NASA's NSSDC Master Catalog

Two Line Element Set (TLE):
1 42779U 17036Q   20293.08787525  .00001810  00000-0  75195-4 0  9995
2 42779  97.2923 345.3986 0009908 309.8524  50.1842 15.25046683184685
Source of the keplerian elements: AFSPC